QPF
0.00 0.00 0.00 0.00 0.00 0.00 0.00 0.00 0.00 0.00 0.00 0.00 0.00 0.00 0.00 0.00 0.00 0.00 0.00 0.00 0.00 0.00 0.00 0.00 0.00 0.01 0.01 0.02 0.02 0.02 0.01 0.01 0.01 0.00 0.00 0.00 0.00 0.00 0.00 0.00 0.00 0.00 0.01
0.00 0.00 0.00 0.00 0.00 0.00 0.00 0.00 0.00 0.00 0.00 0.00 0.00 0.00 0.00 0.00 0.00 0.00 0.00 0.00 0.00 0.00 0.00 0.00 0.01 0.02 0.03 0.04 0.04 0.04 0.04 0.02 0.02 0.01 0.01 0.00 0.00 0.00 0.00 0.00 0.00 0.00 0.01
0.00 0.00 0.00 0.00 0.00 0.00 0.00 0.00 0.00 0.00 0.00 0.00 0.00 0.00 0.00 0.00 0.00 0.00 0.00 0.00 0.00 0.00 0.00 0.01 0.02 0.02 0.03 0.04 0.05 0.07 0.08 0.06 0.04 0.02 0.01 0.01 0.01 0.00 0.00 0.00 0.00 0.00 0.00
0.00 0.00 0.00 0.00 0.00 0.00 0.00 0.00 0.00 0.00 0.00 0.00 0.00 0.00 0.00 0.00 0.00 0.00 0.00 0.00 0.00 0.00 0.00 0.00 0.01 0.02 0.02 0.03 0.04 0.06 0.10 0.10 0.08 0.06 0.04 0.03 0.02 0.02 0.01 0.00 0.00 0.00 0.00
0.00 0.00 0.00 0.00 0.00 0.00 0.00 0.00 0.00 0.00 0.00 0.00 0.00 0.00 0.00 0.00 0.00 0.00 0.00 0.00 0.00 0.00 0.00 0.00 0.00 0.01 0.01 0.02 0.03 0.05 0.07 0.08 0.09 0.09 0.08 0.06 0.05 0.04 0.03 0.02 0.01 0.00 0.00
0.00 0.00 0.00 0.00 0.00 0.00 0.00 0.00 0.00 0.00 0.00 0.00 0.00 0.00 0.00 0.00 0.00 0.00 0.00 0.00 0.00 0.00 0.00 0.00 0.00 0.00 0.00 0.01 0.01 0.03 0.04 0.06 0.07 0.08 0.10 0.11 0.09 0.07 0.06 0.05 0.03 0.02 0.01
0.00 0.00 0.00 0.00 0.00 0.00 0.00 0.00 0.00 0.00 0.00 0.01 0.01 0.00 0.00 0.00 0.00 0.00 0.00 0.00 0.00 0.00 0.00 0.00 0.00 0.00 0.00 0.00 0.00 0.01 0.01 0.03 0.04 0.04 0.06 0.09 0.11 0.11 0.09 0.08 0.07 0.06 0.04
0.00 0.00 0.00 0.00 0.00 0.00 0.00 0.01 0.01 0.01 0.00 0.01 0.01 0.00 0.00 0.00 0.00 0.00 0.00 0.00 0.00 0.00 0.00 0.00 0.00 0.00 0.00 0.00 0.00 0.00 0.00 0.01 0.01 0.02 0.03 0.04 0.06 0.08 0.10 0.12 0.12 0.11 0.09
0.01 0.01 0.01 0.01 0.01 0.01 0.01 0.01 0.01 0.01 0.00 0.00 0.00 0.01 0.01 0.00 0.00 0.00 0.00 0.00 0.00 0.00 0.00 0.00 0.00 0.00 0.00 0.00 0.00 0.00 0.00 0.00 0.00 0.01 0.02 0.03 0.04 0.04 0.06 0.09 0.12 0.14 0.14
0.03 0.02 0.02 0.02 0.02 0.01 0.01 0.00 0.00 0.00 0.00 0.00 0.00 0.00 0.01 0.01 0.01 0.01 0.00 0.00 0.00 0.00 0.00 0.00 0.00 0.00 0.00 0.00 0.00 0.00 0.00 0.00 0.00 0.00 0.01 0.03 0.04 0.05 0.06 0.07 0.09 0.12 0.14
0.03 0.02 0.01 0.01 0.00 0.00 0.00 0.00 0.00 0.00 0.00 0.00 0.00 0.00 0.00 0.00 0.01 0.02 0.01 0.00 0.00 0.00 0.00 0.00 0.00 0.00 0.00 0.00 0.00 0.00 0.00 0.00 0.01 0.01 0.02 0.03 0.04 0.05 0.07 0.08 0.09 0.10 0.11
0.02 0.01 0.01 0.00 0.00 0.00 0.00 0.00 0.00 0.00 0.00 0.00 0.00 0.00 0.00 0.00 0.00 0.01 0.01 0.01 0.00 0.00 0.00 0.00 0.00 0.00 0.00 0.00 0.00 0.00 0.00 0.00 0.01 0.02 0.03 0.03 0.03 0.03 0.04 0.05 0.07 0.09 0.11
0.01 0.01 0.00 0.00 0.00 0.00 0.00 0.00 0.00 0.00 0.00 0.00 0.00 0.00 0.00 0.00 0.00 0.00 0.01 0.01 0.01 0.00 0.00 0.00 0.00 0.00 0.00 0.00 0.00 0.00 0.00 0.00 0.01 0.01 0.02 0.02 0.01 0.01 0.02 0.03 0.05 0.09 0.12
0.01 0.01 0.00 0.00 0.00 0.00 0.00 0.00 0.00 0.00 0.00 0.00 0.00 0.00 0.00 0.00 0.00 0.00 0.00 0.01 0.00 0.00 0.00 0.00 0.00 0.00 0.00 0.00 0.00 0.00 0.00 0.00 0.01 0.01 0.01 0.01 0.01 0.01 0.01 0.01 0.02 0.05 0.09
0.01 0.01 0.01 0.00 0.00 0.00 0.00 0.00 0.00 0.00 0.00 0.00 0.00 0.00 0.00 0.00 0.00 0.00 0.00 0.00 0.00 0.00 0.00 0.00 0.00 0.00 0.00 0.00 0.00 0.00 0.00 0.00 0.01 0.01 0.01 0.01 0.00 0.00 0.00 0.01 0.01 0.02 0.03
0.01 0.01 0.00 0.00 0.00 0.00 0.00 0.00 0.00 0.00 0.00 0.00 0.00 0.00 0.00 0.00 0.00 0.00 0.00 0.00 0.00 0.00 0.00 0.00 0.00 0.00 0.00 0.00 0.00 0.00 0.00 0.00 0.00 0.01 0.00 0.00 0.00 0.00 0.00 0.01 0.01 0.02 0.02
0.00 0.00 0.00 0.00 0.00 0.00 0.00 0.00 0.00 0.00 0.00 0.00 0.00 0.00 0.00 0.00 0.00 0.00 0.00 0.00 0.00 0.00 0.00 0.00 0.00 0.00 0.00 0.00 0.00 0.00 0.00 0.00 0.00 0.01 0.00 0.00 0.00 0.00 0.00 0.01 0.01 0.01 0.01
0.00 0.00 0.00 0.00 0.00 0.00 0.00 0.00 0.00 0.00 0.00 0.00 0.00 0.00 0.00 0.00 0.00 0.00 0.00 0.00 0.00 0.00 0.00 0.00 0.00 0.00 0.00 0.00 0.00 0.00 0.00 0.00 0.00 0.00 0.00 0.00 0.00 0.00 0.00 0.00 0.01 0.01 0.01
0.00 0.00 0.00 0.00 0.00 0.00 0.00 0.00 0.00 0.00 0.00 0.00 0.00 0.00 0.00 0.00 0.00 0.00 0.00 0.00 0.00 0.00 0.00 0.00 0.00 0.00 0.00 0.00 0.00 0.00 0.00 0.00 0.00 0.00 0.00 0.00 0.01 0.01 0.01 0.01 0.01 0.01 0.01
0.00 0.00 0.00 0.00 0.00 0.00 0.00 0.00 0.00 0.00 0.00 0.00 0.00 0.00 0.00 0.00 0.00 0.00 0.00 0.00 0.00 0.00 0.00 0.00 0.00 0.00 0.00 0.00 0.00 0.00 0.00 0.00 0.00 0.00 0.00 0.00 0.01 0.01 0.01 0.01 0.01 0.01 0.01
0.00 0.00 0.00 0.00 0.00 0.00 0.00 0.00 0.00 0.00 0.00 0.00 0.00 0.00 0.00 0.00 0.00 0.00 0.00 0.00 0.00 0.00 0.00 0.00 0.00 0.00 0.00 0.00 0.00 0.00 0.00 0.00 0.00 0.00 0.00 0.00 0.00 0.00 0.00 0.00 0.00 0.01 0.01
0.00 0.00 0.00 0.00 0.00 0.00 0.00 0.00 0.00 0.00 0.00 0.00 0.00 0.00 0.00 0.00 0.00 0.00 0.00 0.00 0.00 0.00 0.00 0.00 0.00 0.00 0.00 0.00 0.00 0.00 0.00 0.00 0.00 0.00 0.00 0.00 0.00 0.00 0.00 0.00 0.00 0.00 0.00
0.00 0.00 0.00 0.00 0.00 0.00 0.00 0.00 0.00 0.00 0.00 0.00 0.00 0.00 0.00 0.00 0.00 0.00 0.00 0.00 0.00 0.00 0.00 0.00 0.00 0.00 0.00 0.00 0.00 0.00 0.00 0.00 0.00 0.00 0.00 0.00 0.00 0.00 0.00 0.00 0.00 0.00 0.00
0.00 0.00 0.00 0.00 0.00 0.00 0.00 0.00 0.00 0.00 0.00 0.00 0.00 0.00 0.00 0.00 0.00 0.00 0.00 0.00 0.00 0.00 0.00 0.00 0.00 0.00 0.00 0.00 0.00 0.00 0.00 0.00 0.00 0.00 0.00 0.00 0.00 0.00 0.00 0.00 0.00 0.00 0.00
0.00 0.00 0.00 0.00 0.00 0.00 0.00 0.00 0.00 0.00 0.00 0.00 0.00 0.00 0.00 0.00 0.00 0.00 0.00 0.00 0.00 0.00 0.00 0.00 0.00 0.00 0.00 0.00 0.00 0.00 0.00 0.00 0.00 0.00 0.00 0.00 0.00 0.00 0.00 0.00 0.00 0.00 0.00
0.00 0.00 0.00 0.00 0.00 0.00 0.00 0.00 0.00 0.00 0.00 0.00 0.00 0.00 0.00 0.00 0.00 0.00 0.00 0.00 0.00 0.00 0.00 0.00 0.00 0.00 0.00 0.00 0.00 0.00 0.00 0.00 0.00 0.00 0.00 0.00 0.00 0.00 0.00 0.00 0.00 0.00 0.00
MSLP
1020.29 1020.45 1020.55 1020.60 1020.63 1020.64 1020.66 1020.69 1020.72 1020.75 1020.77 1020.77 1020.74 1020.68 1020.59 1020.49 1020.39 1020.28 1020.19 1020.10 1020.03 1019.98 1019.93 1019.91 1019.90 1019.92 1019.96 1020.02 1020.09 1020.16 1020.23 1020.30 1020.35 1020.38 1020.41 1020.44 1020.46 1020.49 1020.51 1020.54 1020.54 1020.54 1020.51
1019.92 1020.09 1020.21 1020.31 1020.37 1020.43 1020.47 1020.52 1020.57 1020.60 1020.63 1020.63 1020.60 1020.54 1020.45 1020.34 1020.22 1020.09 1019.95 1019.83 1019.72 1019.63 1019.57 1019.54 1019.53 1019.56 1019.61 1019.68 1019.76 1019.85 1019.93 1020.01 1020.08 1020.15 1020.21 1020.28 1020.36 1020.44 1020.51 1020.58 1020.63 1020.66 1020.67
1019.50 1019.67 1019.83 1019.96 1020.07 1020.17 1020.26 1020.34 1020.41 1020.46 1020.50 1020.50 1020.47 1020.41 1020.31 1020.17 1020.02 1019.84 1019.67 1019.51 1019.37 1019.26 1019.19 1019.16 1019.17 1019.22 1019.30 1019.39 1019.48 1019.57 1019.66 1019.73 1019.81 1019.88 1019.96 1020.06 1020.16 1020.27 1020.38 1020.49 1020.58 1020.66 1020.72
1019.11 1019.27 1019.44 1019.61 1019.77 1019.92 1020.05 1020.17 1020.27 1020.34 1020.39 1020.39 1020.36 1020.29 1020.16 1020.00 1019.81 1019.59 1019.38 1019.18 1019.02 1018.90 1018.84 1018.84 1018.90 1018.98 1019.09 1019.21 1019.31 1019.40 1019.47 1019.52 1019.57 1019.63 1019.69 1019.78 1019.88 1020.00 1020.14 1020.27 1020.40 1020.52 1020.63
1018.79 1018.95 1019.14 1019.33 1019.52 1019.71 1019.88 1020.03 1020.15 1020.24 1020.30 1020.31 1020.27 1020.19 1020.04 1019.85 1019.62 1019.37 1019.12 1018.91 1018.74 1018.64 1018.62 1018.67 1018.77 1018.91 1019.07 1019.20 1019.31 1019.38 1019.42 1019.42 1019.42 1019.42 1019.44 1019.49 1019.57 1019.67 1019.81 1019.95 1020.11 1020.27 1020.42
1018.61 1018.75 1018.94 1019.14 1019.35 1019.56 1019.75 1019.92 1020.06 1020.17 1020.23 1020.25 1020.22 1020.12 1019.96 1019.74 1019.49 1019.22 1018.96 1018.75 1018.60 1018.54 1018.57 1018.68 1018.85 1019.04 1019.23 1019.39 1019.49 1019.52 1019.50 1019.44 1019.36 1019.28 1019.23 1019.22 1019.25 1019.33 1019.44 1019.58 1019.74 1019.91 1020.10
1018.55 1018.69 1018.87 1019.07 1019.28 1019.49 1019.68 1019.86 1020.00 1020.12 1020.19 1020.22 1020.19 1020.09 1019.93 1019.71 1019.45 1019.18 1018.93 1018.74 1018.63 1018.63 1018.72 1018.89 1019.12 1019.37 1019.59 1019.74 1019.82 1019.81 1019.71 1019.57 1019.39 1019.23 1019.10 1019.02 1018.99 1019.02 1019.09 1019.20 1019.35 1019.52 1019.71
1018.61 1018.75 1018.92 1019.11 1019.31 1019.50 1019.68 1019.84 1019.99 1020.10 1020.18 1020.21 1020.19 1020.11 1019.96 1019.75 1019.51 1019.26 1019.04 1018.88 1018.82 1018.87 1019.03 1019.27 1019.55 1019.83 1020.07 1020.22 1020.25 1020.18 1020.01 1019.78 1019.52 1019.27 1019.06 1018.91 1018.83 1018.80 1018.83 1018.89 1019.00 1019.13 1019.30
1018.77 1018.92 1019.09 1019.27 1019.44 1019.60 1019.75 1019.89 1020.01 1020.11 1020.19 1020.23 1020.23 1020.17 1020.04 1019.86 1019.65 1019.43 1019.25 1019.14 1019.13 1019.23 1019.45 1019.73 1020.06 1020.36 1020.60 1020.72 1020.72 1020.59 1020.35 1020.05 1019.71 1019.40 1019.13 1018.93 1018.79 1018.72 1018.69 1018.70 1018.74 1018.81 1018.92
1018.98 1019.17 1019.34 1019.51 1019.65 1019.78 1019.89 1019.99 1020.08 1020.16 1020.24 1020.29 1020.30 1020.26 1020.16 1020.01 1019.83 1019.65 1019.51 1019.44 1019.48 1019.63 1019.88 1020.21 1020.55 1020.86 1021.09 1021.19 1021.15 1020.97 1020.68 1020.33 1019.95 1019.60 1019.30 1019.07 1018.91 1018.79 1018.72 1018.67 1018.62 1018.60 1018.61
1019.23 1019.45 1019.65 1019.80 1019.92 1020.01 1020.07 1020.13 1020.19 1020.25 1020.31 1020.37 1020.39 1020.37 1020.30 1020.18 1020.03 1019.88 1019.77 1019.73 1019.80 1019.98 1020.26 1020.60 1020.96 1021.27 1021.48 1021.56 1021.49 1021.28 1020.98 1020.60 1020.22 1019.87 1019.57 1019.34 1019.16 1019.03 1018.91 1018.79 1018.65 1018.51 1018.39
1019.49 1019.75 1019.97 1020.12 1020.22 1020.27 1020.29 1020.31 1020.33 1020.36 1020.41 1020.46 1020.49 1020.48 1020.43 1020.32 1020.19 1020.06 1019.98 1019.96 1020.05 1020.25 1020.54 1020.89 1021.25 1021.55 1021.75 1021.82 1021.74 1021.53 1021.22 1020.87 1020.50 1020.18 1019.91 1019.70 1019.54 1019.40 1019.24 1019.05 1018.82 1018.56 1018.29
1019.74 1020.05 1020.28 1020.43 1020.51 1020.53 1020.51 1020.49 1020.48 1020.49 1020.53 1020.57 1020.60 1020.59 1020.54 1020.45 1020.32 1020.20 1020.13 1020.12 1020.22 1020.43 1020.72 1021.07 1021.43 1021.73 1021.93 1021.99 1021.92 1021.73 1021.45 1021.13 1020.81 1020.53 1020.31 1020.14 1020.00 1019.86 1019.67 1019.43 1019.10 1018.72 1018.31
1019.99 1020.33 1020.56 1020.71 1020.76 1020.75 1020.71 1020.66 1020.63 1020.63 1020.65 1020.68 1020.71 1020.70 1020.65 1020.55 1020.43 1020.31 1020.23 1020.23 1020.33 1020.54 1020.84 1021.19 1021.55 1021.85 1022.05 1022.13 1022.08 1021.92 1021.68 1021.40 1021.14 1020.92 1020.75 1020.62 1020.51 1020.37 1020.17 1019.87 1019.47 1018.99 1018.47
1020.23 1020.57 1020.80 1020.92 1020.95 1020.93 1020.86 1020.80 1020.76 1020.75 1020.78 1020.81 1020.83 1020.83 1020.77 1020.67 1020.55 1020.43 1020.35 1020.34 1020.44 1020.65 1020.95 1021.30 1021.67 1021.98 1022.20 1022.30 1022.28 1022.15 1021.95 1021.72 1021.51 1021.34 1021.21 1021.12 1021.02 1020.89 1020.68 1020.35 1019.90 1019.35 1018.75
1020.46 1020.77 1020.97 1021.07 1021.08 1021.03 1020.96 1020.90 1020.87 1020.87 1020.91 1020.96 1020.99 1020.99 1020.94 1020.84 1020.71 1020.59 1020.51 1020.51 1020.61 1020.82 1021.12 1021.47 1021.84 1022.17 1022.40 1022.53 1022.54 1022.44 1022.28 1022.09 1021.92 1021.78 1021.68 1021.60 1021.52 1021.39 1021.17 1020.84 1020.37 1019.80 1019.15
1020.67 1020.93 1021.08 1021.15 1021.13 1021.08 1021.01 1020.96 1020.96 1021.00 1021.07 1021.14 1021.20 1021.22 1021.18 1021.09 1020.97 1020.85 1020.77 1020.76 1020.87 1021.07 1021.38 1021.74 1022.11 1022.45 1022.70 1022.85 1022.88 1022.81 1022.68 1022.52 1022.36 1022.23 1022.14 1022.07 1021.99 1021.86 1021.64 1021.31 1020.86 1020.29 1019.66
1020.85 1021.05 1021.15 1021.18 1021.14 1021.08 1021.03 1021.02 1021.05 1021.13 1021.25 1021.37 1021.47 1021.51 1021.50 1021.43 1021.31 1021.20 1021.12 1021.12 1021.22 1021.43 1021.73 1022.09 1022.46 1022.80 1023.07 1023.23 1023.28 1023.23 1023.11 1022.96 1022.81 1022.68 1022.59 1022.51 1022.42 1022.29 1022.08 1021.77 1021.35 1020.83 1020.25
1020.99 1021.14 1021.20 1021.19 1021.14 1021.08 1021.05 1021.08 1021.16 1021.30 1021.47 1021.64 1021.78 1021.86 1021.88 1021.83 1021.73 1021.63 1021.55 1021.55 1021.65 1021.84 1022.13 1022.48 1022.85 1023.18 1023.45 1023.62 1023.68 1023.65 1023.55 1023.40 1023.25 1023.12 1023.01 1022.91 1022.81 1022.68 1022.48 1022.20 1021.83 1021.37 1020.87
1021.11 1021.21 1021.23 1021.20 1021.14 1021.10 1021.10 1021.16 1021.29 1021.48 1021.71 1021.93 1022.11 1022.23 1022.28 1022.26 1022.18 1022.08 1022.01 1022.00 1022.08 1022.26 1022.52 1022.85 1023.20 1023.53 1023.79 1023.97 1024.04 1024.03 1023.94 1023.81 1023.66 1023.52 1023.40 1023.29 1023.18 1023.04 1022.86 1022.60 1022.28 1021.90 1021.47
1021.17 1021.26 1021.26 1021.22 1021.17 1021.15 1021.18 1021.27 1021.45 1021.68 1021.95 1022.21 1022.43 1022.59 1022.66 1022.66 1022.60 1022.51 1022.43 1022.41 1022.47 1022.62 1022.86 1023.15 1023.47 1023.78 1024.04 1024.22 1024.31 1024.32 1024.25 1024.14 1024.01 1023.88 1023.75 1023.64 1023.52 1023.38 1023.21 1022.98 1022.70 1022.38 1022.03
1021.19 1021.28 1021.29 1021.26 1021.23 1021.22 1021.28 1021.41 1021.61 1021.87 1022.16 1022.45 1022.70 1022.88 1022.97 1022.98 1022.93 1022.85 1022.77 1022.73 1022.77 1022.88 1023.08 1023.34 1023.63 1023.92 1024.17 1024.36 1024.47 1024.50 1024.47 1024.40 1024.29 1024.18 1024.07 1023.96 1023.85 1023.71 1023.54 1023.33 1023.08 1022.80 1022.51
1021.13 1021.25 1021.30 1021.30 1021.29 1021.31 1021.39 1021.53 1021.75 1022.02 1022.32 1022.61 1022.87 1023.06 1023.16 1023.19 1023.15 1023.07 1022.99 1022.94 1022.95 1023.04 1023.20 1023.42 1023.68 1023.95 1024.19 1024.39 1024.52 1024.59 1024.61 1024.58 1024.52 1024.44 1024.36 1024.26 1024.15 1024.02 1023.86 1023.66 1023.43 1023.17 1022.90
1021.00 1021.18 1021.27 1021.31 1021.33 1021.37 1021.46 1021.61 1021.82 1022.09 1022.38 1022.67 1022.92 1023.11 1023.23 1023.27 1023.24 1023.17 1023.09 1023.04 1023.03 1023.10 1023.23 1023.42 1023.65 1023.90 1024.13 1024.34 1024.50 1024.62 1024.68 1024.70 1024.69 1024.66 1024.61 1024.54 1024.45 1024.32 1024.17 1023.98 1023.75 1023.50 1023.24
1020.79 1021.03 1021.17 1021.25 1021.31 1021.38 1021.47 1021.62 1021.82 1022.06 1022.34 1022.61 1022.85 1023.04 1023.17 1023.22 1023.22 1023.17 1023.11 1023.06 1023.06 1023.10 1023.21 1023.38 1023.59 1023.82 1024.06 1024.27 1024.46 1024.61 1024.72 1024.79 1024.83 1024.84 1024.83 1024.79 1024.72 1024.61 1024.46 1024.27 1024.05 1023.81 1023.55
1020.51 1020.79 1020.99 1021.12 1021.20 1021.28 1021.38 1021.52 1021.70 1021.93 1022.18 1022.43 1022.67 1022.86 1023.00 1023.08 1023.11 1023.10 1023.07 1023.04 1023.05 1023.10 1023.20 1023.35 1023.55 1023.77 1024.00 1024.22 1024.43 1024.61 1024.75 1024.87 1024.95 1025.01 1025.03 1025.02 1024.96 1024.87 1024.74 1024.56 1024.35 1024.11 1023.86
Thickness
5696 5696 5695 5695 5694 5693 5692 5692 5691 5691 5690 5690 5689 5689 5688 5687 5686 5685 5683 5681 5679 5676 5674 5671 5668 5664 5660 5657 5653 5648 5644 5640 5636 5632 5628 5624 5621 5618 5615 5612 5610 5608 5606
5695 5694 5693 5692 5691 5691 5690 5689 5688 5688 5688 5687 5686 5686 5685 5684 5683 5682 5681 5679 5676 5673 5670 5667 5664 5661 5657 5654 5650 5646 5641 5637 5632 5628 5624 5620 5616 5612 5609 5606 5604 5602 5600
5692 5691 5690 5689 5689 5688 5688 5686 5685 5685 5684 5684 5683 5682 5681 5681 5680 5679 5677 5675 5673 5670 5667 5664 5661 5657 5654 5650 5646 5642 5638 5634 5629 5625 5621 5616 5612 5608 5605 5602 5599 5596 5594
5689 5688 5686 5686 5685 5684 5684 5683 5681 5680 5679 5678 5678 5677 5677 5676 5675 5674 5673 5671 5669 5666 5663 5660 5656 5653 5649 5645 5641 5637 5633 5629 5625 5621 5617 5613 5608 5605 5601 5597 5594 5591 5589
5684 5683 5682 5681 5681 5680 5679 5678 5677 5675 5674 5673 5673 5672 5672 5671 5670 5669 5668 5666 5664 5661 5658 5655 5651 5647 5642 5638 5635 5631 5627 5624 5620 5617 5613 5609 5604 5601 5597 5593 5590 5587 5584
5678 5678 5676 5675 5674 5673 5672 5672 5671 5670 5668 5667 5667 5667 5666 5666 5665 5664 5662 5660 5658 5655 5652 5648 5644 5639 5635 5631 5627 5623 5620 5617 5613 5610 5607 5604 5600 5596 5593 5589 5586 5583 5580
5672 5671 5670 5669 5668 5666 5665 5665 5664 5662 5661 5660 5659 5658 5659 5659 5658 5657 5655 5653 5650 5646 5643 5639 5635 5631 5626 5622 5618 5615 5611 5609 5606 5603 5600 5598 5595 5592 5589 5586 5582 5579 5576
5665 5664 5663 5661 5660 5659 5657 5656 5655 5654 5653 5652 5649 5647 5646 5647 5648 5647 5645 5642 5639 5636 5632 5628 5625 5620 5616 5612 5608 5605 5602 5600 5598 5596 5593 5591 5589 5587 5585 5582 5579 5576 5573
5656 5655 5654 5653 5652 5651 5649 5647 5646 5645 5643 5642 5640 5638 5635 5634 5634 5636 5633 5630 5627 5624 5620 5617 5613 5609 5606 5602 5599 5596 5593 5591 5589 5587 5586 5585 5583 5581 5580 5578 5575 5572 5569
5648 5647 5645 5644 5643 5641 5640 5638 5637 5636 5634 5632 5630 5629 5628 5626 5623 5623 5621 5617 5614 5610 5607 5604 5600 5597 5594 5591 5588 5585 5583 5581 5580 5579 5578 5577 5576 5575 5573 5572 5570 5568 5565
5637 5636 5635 5634 5633 5631 5630 5629 5627 5626 5624 5622 5620 5619 5618 5616 5614 5611 5610 5605 5600 5596 5593 5590 5587 5584 5582 5579 5577 5574 5573 5571 5571 5570 5570 5569 5568 5567 5566 5565 5563 5562 5560
5626 5626 5625 5624 5622 5621 5619 5618 5616 5615 5613 5612 5610 5608 5607 5605 5603 5601 5600 5596 5590 5583 5579 5576 5573 5571 5569 5567 5564 5563 5561 5560 5560 5560 5560 5559 5558 5557 5556 5556 5556 5555 5553
5615 5614 5614 5612 5611 5610 5608 5607 5605 5604 5602 5600 5599 5597 5595 5594 5592 5591 5589 5587 5583 5575 5569 5563 5560 5559 5557 5554 5553 5551 5550 5549 5549 5548 5548 5547 5546 5545 5546 5546 5546 5547 5546
5606 5604 5602 5601 5600 5598 5597 5595 5594 5592 5590 5588 5587 5585 5583 5581 5579 5578 5577 5576 5574 5568 5561 5554 5549 5547 5544 5543 5541 5540 5538 5537 5537 5537 5536 5535 5534 5534 5535 5535 5536 5537 5538
5595 5592 5590 5589 5587 5585 5584 5583 5581 5580 5578 5576 5574 5572 5570 5568 5566 5564 5563 5563 5562 5561 5555 5545 5539 5535 5533 5531 5529 5528 5527 5526 5526 5525 5525 5524 5524 5524 5524 5524 5525 5526 5527
5583 5581 5578 5576 5574 5573 5571 5570 5568 5567 5566 5563 5561 5559 5557 5555 5553 5552 5550 5549 5548 5548 5545 5535 5528 5525 5522 5520 5518 5516 5515 5515 5514 5515 5514 5514 5513 5513 5514 5514 5514 5515 5517
5571 5568 5566 5564 5562 5560 5558 5557 5555 5554 5552 5550 5548 5546 5544 5542 5540 5538 5537 5536 5535 5534 5532 5523 5518 5513 5510 5508 5507 5505 5505 5504 5504 5504 5504 5503 5503 5503 5504 5504 5504 5505 5506
5558 5556 5554 5551 5549 5547 5546 5544 5543 5541 5539 5537 5534 5532 5530 5528 5526 5524 5523 5522 5521 5520 5519 5514 5506 5502 5499 5498 5497 5495 5494 5494 5494 5493 5494 5493 5493 5494 5494 5494 5494 5494 5495
5546 5543 5541 5539 5537 5535 5533 5532 5530 5528 5526 5524 5521 5519 5517 5515 5513 5511 5510 5508 5507 5507 5506 5503 5496 5492 5489 5488 5486 5485 5484 5483 5484 5483 5483 5483 5483 5484 5484 5483 5483 5483 5484
5534 5531 5529 5527 5525 5523 5521 5520 5517 5515 5512 5510 5508 5506 5504 5502 5500 5498 5497 5495 5495 5493 5492 5490 5485 5481 5478 5476 5475 5474 5473 5472 5472 5473 5473 5473 5473 5473 5473 5473 5472 5472 5473
5522 5520 5517 5515 5513 5511 5509 5507 5505 5503 5500 5497 5495 5493 5492 5490 5489 5487 5485 5483 5482 5480 5478 5477 5473 5470 5467 5465 5464 5463 5461 5460 5461 5461 5462 5463 5463 5463 5463 5462 5462 5462 5462
5510 5508 5505 5503 5501 5500 5499 5497 5494 5491 5488 5485 5483 5481 5480 5478 5477 5476 5475 5474 5472 5469 5467 5465 5462 5460 5457 5455 5453 5454 5451 5450 5451 5451 5451 5451 5452 5451 5452 5452 5452 5452 5451
5499 5497 5494 5492 5490 5489 5489 5487 5484 5480 5477 5474 5471 5470 5468 5467 5464 5463 5463 5462 5461 5461 5459 5456 5453 5451 5448 5447 5445 5444 5442 5441 5441 5441 5441 5441 5441 5440 5441 5441 5441 5441 5441
5489 5486 5484 5482 5480 5479 5478 5476 5473 5468 5465 5463 5461 5459 5457 5455 5454 5452 5451 5449 5448 5448 5448 5447 5445 5443 5441 5440 5438 5436 5434 5433 5432 5431 5431 5430 5430 5430 5431 5431 5431 5431 5430
5479 5477 5475 5472 5470 5469 5469 5466 5463 5457 5455 5453 5451 5449 5448 5446 5446 5444 5441 5439 5438 5437 5438 5437 5436 5435 5433 5432 5430 5427 5425 5423 5422 5422 5420 5419 5418 5418 5419 5420 5420 5419 5418
5471 5468 5465 5463 5461 5459 5459 5457 5454 5448 5445 5443 5442 5440 5440 5438 5437 5436 5432 5430 5429 5428 5427 5427 5426 5425 5424 5423 5421 5419 5416 5412 5410 5410 5410 5408 5406 5405 5405 5408 5408 5408 5407